Location: Igri�s
(42.2144°N, 0.4320°W)
Time: 18:58:04
(UTC+00:00)

Nadezhda 4 Rocket - Pass Details

Date: 13 August 2020
Orbit: 949 x 993 km, 82.9° (Epoch: 20 September)

Event Time Altitude Azimuth Distance (km) Brightness Sun altitude
Rises 23:44:13 0° 355° (N) 3,698 8.1 -33.3°
Reaches altitude 10° 23:46:48 10° 359° (N) 2,740 7.2 -33.3°
Enters shadow 23:52:02 55° 39° (NE) 1,156 4.4 -33.4°
